Regional Weather Roundup
Issued by NWS Charleston, WV

Home | Current Version | Previous Version | Text Only | Print | Product List | Glossary On
Versions: 1 2 3 4 5 6 7 8 9 10 11 12 13 14 15 16 17 18 19 20 21 22 23 24 25 26 27 28 29 30 31 32 33 34 35 36 37 38 39 40 41 42 43 44 45 46 47 48 49 50
000
ASUS41 KRLX 171510
RWRRLX
West Virginia Regional Weather Roundup
National Weather Service Charleston WV
1000 AM EST WED JAN 17 2018

Note: "fair" indicates few or no clouds below 12,000 feet with no
significant weather and/or obstructions to visibility.

WVZ003-171600-
Northern Panhandle of West Virginia

CITY           SKY/WX    TMP DP  RH WIND       PRES   REMARKS
WHEELING       LGT SNOW   5   0  79 W5        30.49R WCI  -4
$$

WVZ009-171600-
Northwest West Virginia

CITY           SKY/WX    TMP DP  RH WIND       PRES   REMARKS
PARKERSBURG    LGT SNOW   5   1  83 CALM      30.57S FOG
$$

WVZ006-171600-
Western West Virginia

CITY           SKY/WX    TMP DP  RH WIND       PRES   REMARKS
HUNTINGTON     LGT SNOW   9   4  80 W3        30.55R
$$

WVZ015-171600-
West Central West Virginia

CITY           SKY/WX    TMP DP  RH WIND       PRES   REMARKS
CHARLESTON     FLURRIES  10   2  69 VRB5      30.52R WCI   2
$$

WVZ022-031-171600-
North Central West Virginia

CITY           SKY/WX    TMP DP  RH WIND       PRES   REMARKS
CLARKSBURG     LGT SNOW   9   1  70 W3        30.48S
MORGANTOWN     LGT SNOW   8   3  80 NW3       30.48S
$$

WVZ025-035-042-045-171600-
Southern West Virginia

CITY           SKY/WX    TMP DP  RH WIND       PRES   REMARKS
BECKLEY        LGT SNOW   6   1  80 N8        30.31S WCI  -7
LOGAN          LGT SNOW   7   3  85 CALM      30.43S
BLUEFIELD      CLOUDY     7   3  84 N6        30.27R WCI  -3
LEWISBURG      CLOUDY    13   7  74 CALM      30.30S
$$

WVZ047-171600-
Northern Mountains of West Virginia

CITY           SKY/WX    TMP DP  RH WIND       PRES   REMARKS
ELKINS         CLOUDY     9   2  73 VRB3      30.38S HAZE
$$

WVZ052-171600-
Eastern Panhandle of West Virginia

CITY           SKY/WX    TMP DP  RH WIND       PRES   REMARKS
MARTINSBURG      N/A     18   6  59 NW9       30.44R WCI   7
PETERSBURG     CLOUDY    18   5  55 NE5       30.43R
$$



USA.gov is the U.S. government's official web portal to all federal, state and local government web resources and services.